This is the latest recevied weather packets stored in our database for station/object KM4KMS. If no packets are shown the sender has not sent any weather packets the latest 10 day(s).
| Time | Temp. | Humidity | Pressure | Rain* | Wind** | Luminosity | Snow |
|---|---|---|---|---|---|---|---|
| 1778076435 | 10.56° C | 82% | 1011.5 hPa | 0 mm | - | 435 W/m² | - |
| 1778076132 | 10° C | 84% | 1011.2 hPa | 0 mm | - | 420 W/m² | - |
| 1778075829 | 10° C | 85% | 1011.1 hPa | 0 mm | - | 341 W/m² | - |
| 1778075525 | 9.44° C | 87% | 1011 hPa | 0 mm | - | 263 W/m² | - |
| 1778075222 | 9.44° C | 86% | 1011.2 hPa | 0 mm | - | 177 W/m² | - |
| 1778074918 | 8.89° C | 87% | 1011.2 hPa | 0 mm | - | 139 W/m² | - |
| 1778074616 | 8.89° C | 85% | 1011.4 hPa | 0 mm | - | 144 W/m² | - |
| 1778074312 | 8.89° C | 88% | 1011.4 hPa | 0 mm | - | 141 W/m² | - |
| 1778074009 | 8.89° C | 89% | 1011.2 hPa | 0 mm | - | 146 W/m² | - |
| 1778073706 | 8.89° C | 89% | 1011.1 hPa | 0 mm | - | 148 W/m² | - |
| 1778073404 | 8.33° C | 90% | 1010.9 hPa | 0 mm | - | 137 W/m² | - |
| 1778073100 | 8.33° C | 90% | 1010.8 hPa | 0 mm | - | 121 W/m² | - |
| 1778072797 | 8.33° C | 90% | 1010.8 hPa | 0 mm | - | 115 W/m² | - |
| 1778072494 | 8.33° C | 91% | 1010.7 hPa | 0 mm | - | 115 W/m² | - |
| 1778072192 | 8.33° C | 91% | 1011 hPa | 0 mm | - | 120 W/m² | - |
| 1778071890 | 7.78° C | 92% | 1010.7 hPa | 0 mm | - | 104 W/m² | - |
| 1778071587 | 7.78° C | 92% | 1010.7 hPa | 0 mm | - | 105 W/m² | - |
| 1778071285 | 7.78° C | 92% | 1010.9 hPa | 0 mm | - | 111 W/m² | - |
| 1778070982 | 7.78° C | 93% | 1011.1 hPa | 0 mm | - | 113 W/m² | - |
| 1778070681 | 7.78° C | 92% | 1011 hPa | 0 mm | - | 101 W/m² | - |
| 1778070377 | 7.78° C | 92% | 1010.8 hPa | 0 mm | - | 93 W/m² | - |
| 1778070075 | 7.78° C | 93% | 1010.8 hPa | 0 mm | - | 89 W/m² | - |
| 1778069773 | 7.78° C | 93% | 1010.6 hPa | 0 mm | - | 92 W/m² | - |
| 1778069469 | 7.78° C | 93% | 1010.8 hPa | 0 mm | - | 86 W/m² | - |
| 1778069167 | 7.78° C | 93% | 1010.7 hPa | 0 mm | - | 91 W/m² | - |
* Rain latest hour (hover to see other rain measurements)
** Current wind speed in m/s (hover to see current wind gust speed)